Location: Newark
(47.5783°N, 6.7622°E)
Time: 16:54:52
(UTC+00:00)

Transit 2A - Visible Passes

Search period start: 21 February 2020 00:00
Search period end: 02 March 2020 00:00
Orbit: 600 x 959 km, 66.7° (Epoch: 21 February)

Date Brightness Start Highest point End Pass type
(mag) Time Alt. Az. Time Alt. Az. Time Alt. Az.
21 Feb 7.8 19:48:25 10° NNW 19:50:27 19° N 19:50:27 19° N visible
22 Feb 7.7 19:14:32 10° N 19:17:24 18° NNE 19:17:24 18° NNE visible
22 Feb 8.4 20:56:49 10° NNW 20:57:53 17° NNW 20:57:53 17° NNW visible
23 Feb 7.8 18:40:42 10° N 18:43:29 15° NNE 18:44:24 14° NE visible
23 Feb 7.7 20:22:45 10° NNW 20:24:53 25° NNW 20:24:53 25° NNW visible
24 Feb 8.0 18:07:00 10° N 18:08:58 12° NNE 18:11:01 10° NE visible
24 Feb 7.1 19:48:43 10° NNW 19:51:55 33° N 19:51:55 33° N visible
24 Feb 8.8 21:31:53 10° NW 21:32:25 13° NW 21:32:25 13° NW visible
25 Feb 6.9 19:14:43 10° NNW 19:19:00 31° NE 19:19:00 31° NE visible
25 Feb 8.1 20:57:34 10° NW 20:59:31 23° NW 20:59:31 23° NW visible
26 Feb 7.2 18:40:46 10° NNW 18:44:50 24° NE 18:46:08 22° ENE visible
26 Feb 7.1 20:23:22 10° NW 20:26:39 42° NW 20:26:39 42° NW visible
27 Feb 7.5 18:06:51 10° N 18:10:26 19° NE 18:13:20 13° ENE visible
27 Feb 6.0 19:49:14 10° NNW 19:53:52 72° N 19:53:52 72° N visible
27 Feb 8.8 21:33:30 10° WNW 21:34:23 13° WNW 21:34:23 13° WNW visible
28 Feb 6.1 19:15:08 10° NNW 19:20:09 59° NE 19:21:09 50° E visible
28 Feb 8.1 20:58:48 10° WNW 21:01:40 23° W 21:01:40 23° W visible
29 Feb 6.4 18:41:06 10° NNW 18:45:56 44° NE 18:48:32 26° ESE visible
29 Feb 7.3 20:24:20 10° NW 20:29:04 36° WSW 20:29:04 36° WSW visible
01 Mar 6.8 18:07:05 10° NNW 18:11:40 33° NE 18:16:03 13° ESE visible
01 Mar 6.7 19:50:01 10° NW 19:55:01 50° WSW 19:56:35 39° SSW visible
